{"data":{"norad_id":65521,"epoch":"2026-09-20T03:19:04.375776Z","epoch_age_seconds":143009,"freshness":"FRESH","line1":"1 65521U 25200B   26263.13824509  .00015636  00000+0  48549-3 0  9992","line2":"2 65521  97.2832 329.4967 0001741  99.0993 261.0447 15.33455363 58582","mean_motion":15.33455363,"eccentricity":0.0001741,"inclination_deg":97.2832,"raan_deg":329.4967,"arg_perigee_deg":99.0993,"mean_anomaly_deg":261.0447,"bstar":0.00048549,"rev_number":5858,"period_min":93.905570044297,"perigee_km":464.32086230438,"apogee_km":466.70382100514,"semimajor_km":6843.6493416548,"source":"CELESTRAK","updated_at":"2026-09-21T09:00:35.647679Z"}}